Theta_e
297 296 297 297 297 297 297 296 297 297 297 297 297 298 298 299 300 300 301 302 303 303 303 304 304 304 304 304 305 305 306 306 307 307 308 309 309 309 311 314 316 316 319 322 326 330 336 340 341 342 343 344 344 344 345 346 346 347 348 347 347 347 345 342 342 343 343 342 343 345 344 345 345 344 344 344 343 343 342 341 341 340 339 338 338
295 295 296 295 296 296 295 295 296 296 296 296 296 297 297 298 298 299 300 301 301 302 303 302 303 303 304 303 304 304 304 305 305 306 307 307 308 307 309 311 314 314 315 318 323 326 330 336 340 341 342 343 344 344 344 344 345 346 345 348 348 347 345 344 343 341 341 342 342 343 344 344 343 344 344 344 342 342 341 341 340 339 339 338 338
295 295 295 295 294 294 294 295 295 295 295 295 295 296 297 297 297 298 298 299 300 301 302 301 302 302 303 303 303 303 303 304 305 305 305 307 307 307 308 309 311 312 313 315 317 320 323 327 331 337 341 342 342 343 344 344 344 344 345 343 346 348 347 345 345 343 340 340 342 342 343 343 342 343 343 343 342 341 341 340 339 339 338 338 337
294 294 293 294 293 293 294 293 294 294 294 294 294 295 296 296 297 298 298 299 299 299 300 300 300 301 302 302 302 302 303 304 304 305 305 306 307 307 308 309 309 310 312 313 316 318 321 323 327 331 335 340 342 343 342 343 344 344 344 344 343 343 346 346 345 343 341 342 341 342 343 342 342 342 343 342 341 340 340 339 339 338 338 337 337
294 293 293 293 293 293 292 292 293 292 293 294 294 295 295 296 296 297 297 297 298 298 300 299 299 300 300 301 301 301 302 303 303 304 305 306 306 306 307 307 308 308 309 311 313 315 317 319 323 327 331 333 340 342 343 343 343 343 344 344 344 344 344 345 344 344 344 344 343 343 342 342 342 342 342 342 341 340 339 338 338 338 338 338 337
293 293 293 292 292 292 292 291 292 292 292 293 293 293 294 294 295 295 295 295 296 297 297 297 298 299 299 300 300 301 302 302 303 303 304 305 306 306 306 306 306 307 308 309 311 313 315 317 319 322 325 328 331 340 341 342 343 344 344 343 344 344 343 343 347 345 345 344 343 343 342 342 342 342 342 341 341 340 339 338 338 338 338 337 337
293 292 292 292 291 291 291 291 291 291 291 292 292 292 293 293 294 293 294 295 295 295 295 295 296 296 298 299 299 300 300 301 302 303 304 305 304 305 306 306 306 307 308 308 306 308 312 317 318 319 322 326 329 332 338 340 341 342 343 344 343 344 343 341 343 347 345 345 344 343 341 341 342 342 342 342 340 340 339 338 338 338 337 337 337
292 292 291 291 290 290 290 290 290 290 291 291 291 291 291 292 293 293 293 293 293 294 294 294 295 295 296 297 298 299 299 300 300 301 303 303 303 304 305 305 306 306 305 306 307 307 308 311 315 318 320 322 325 328 332 337 339 340 341 343 343 343 343 344 342 347 346 344 342 341 341 341 341 341 341 341 340 339 339 338 337 337 338 337 337
292 291 290 290 290 289 290 290 289 290 290 290 291 291 291 292 292 293 293 292 292 293 294 294 294 295 295 296 297 297 298 299 300 300 302 301 302 303 303 304 305 304 305 306 306 306 306 308 311 313 314 319 323 327 330 335 336 340 341 341 343 343 343 342 342 344 344 343 341 341 341 340 340 341 341 341 340 339 339 338 337 337 337 337 337
291 291 291 290 290 289 289 289 289 289 289 289 290 290 291 291 290 292 292 292 292 292 292 293 294 294 294 295 297 297 298 299 300 300 300 300 301 302 303 303 304 305 306 306 306 307 308 307 308 309 309 312 318 321 324 329 333 337 340 341 342 343 342 342 341 341 341 341 341 341 341 340 340 341 341 340 339 339 338 338 337 337 337 337 337
290 290 289 290 289 289 288 289 288 289 288 289 289 290 290 290 290 290 292 292 292 292 292 292 293 294 294 295 296 297 298 299 299 300 300 301 301 301 303 303 304 304 305 305 306 306 306 307 307 308 308 311 318 320 322 323 326 332 336 339 340 341 343 342 341 341 340 340 340 341 341 340 341 340 340 340 339 339 338 338 337 337 337 337 336
290 290 289 289 289 288 288 288 288 288 288 288 289 289 289 289 290 290 289 290 291 292 292 292 292 293 293 296 297 297 298 299 300 300 300 301 301 302 301 303 303 304 305 305 305 306 307 307 306 307 307 309 312 317 322 323 324 328 332 336 340 340 340 341 341 341 340 341 340 340 341 340 340 340 340 340 339 339 338 338 338 337 337 336 336
289 289 288 288 288 289 288 288 288 288 288 288 289 289 289 289 289 289 289 289 290 291 292 292 291 292 294 294 294 296 296 297 298 299 300 301 301 301 302 302 303 303 304 304 305 305 305 305 306 307 307 308 308 310 315 318 319 326 330 334 338 340 340 340 341 342 340 339 339 340 340 340 341 340 341 340 339 339 338 338 338 338 337 336 336
288 289 288 288 288 288 288 288 288 288 288 288 288 288 288 289 289 288 290 289 288 290 291 292 290 289 288 288 291 295 296 297 297 300 301 301 301 301 302 302 302 303 304 303 304 304 305 306 306 306 307 308 309 310 311 319 319 322 329 333 336 339 340 340 340 341 340 339 339 339 340 341 341 341 340 340 340 339 338 337 337 338 337 337 336
288 288 288 288 288 288 287 288 288 287 287 288 288 288 289 288 288 287 287 288 288 291 291 292 288 289 289 288 287 287 292 295 299 301 300 300 300 300 300 301 302 303 303 303 303 304 305 306 307 308 308 308 310 311 311 310 318 316 321 326 332 337 340 340 341 342 342 340 340 340 340 340 341 340 340 339 339 339 339 339 338 338 337 336 335
288 288 287 287 287 287 287 287 287 288 288 287 287 287 288 288 288 287 287 285 287 288 291 290 289 289 285 286 286 287 286 291 291 293 295 296 296 298 300 300 301 302 302 302 303 305 306 309 310 312 313 314 314 313 314 313 313 309 311 316 320 331 338 340 341 340 340 343 340 340 340 340 341 341 340 340 340 340 339 338 338 337 336 336 335
287 287 286 286 287 287 287 287 287 288 287 287 287 287 287 287 287 286 286 286 285 287 288 290 290 291 288 286 285 285 285 287 289 290 295 296 297 298 298 299 299 300 301 301 302 302 302 302 303 303 305 306 308 311 315 316 315 315 321 309 312 320 328 338 340 339 341 341 342 340 341 341 340 340 339 340 341 340 339 339 337 336 336 336 335
287 286 286 286 286 287 287 286 287 287 287 287 286 287 287 287 287 286 286 286 285 285 285 289 289 289 290 289 288 284 285 287 287 285 292 293 294 296 297 299 300 299 300 300 300 301 301 302 304 305 306 307 307 308 313 318 317 318 319 328 315 317 321 327 337 340 341 342 341 343 344 342 341 341 339 339 339 339 338 338 337 337 335 335 334
286 286 286 286 286 286 286 286 286 286 286 286 286 286 286 286 286 286 286 286 286 284 285 286 288 288 288 288 288 289 289 286 284 286 284 290 293 293 294 296 297 297 297 298 300 300 300 301 301 301 302 304 306 307 307 309 309 312 311 311 314 316 318 320 324 334 340 340 341 341 344 345 342 341 340 340 340 338 339 338 337 335 335 335 335
285 285 285 285 285 285 285 286 286 286 286 286 286 286 286 286 286 286 285 285 285 284 285 286 285 285 288 287 287 288 289 289 289 287 285 284 286 292 294 294 295 296 297 297 298 298 299 300 300 301 302 304 304 305 306 305 306 311 313 314 316 317 319 320 320 322 329 336 340 340 342 343 343 342 340 338 339 338 339 338 337 336 336 335 335
285 285 284 284 284 284 285 285 285 285 284 285 286 286 285 285 285 285 285 285 285 285 285 285 285 285 285 286 287 287 287 288 289 289 286 284 284 286 287 292 293 294 295 296 298 298 299 299 300 301 301 301 303 303 304 306 304 307 308 309 312 316 319 321 320 320 322 324 331 336 340 342 344 342 342 340 338 338 339 338 337 337 335 335 335
284 284 284 284 284 284 284 284 284 285 284 284 285 285 285 285 285 284 284 284 285 285 284 284 285 285 286 285 284 284 285 285 286 286 286 286 283 284 286 287 286 290 294 295 296 297 298 298 299 300 301 301 302 304 306 307 307 307 307 306 308 310 316 320 322 321 320 320 322 326 333 338 340 344 342 342 340 338 339 339 337 337 335 335 334
284 283 284 283 283 283 283 284 283 283 283 284 284 284 284 284 284 284 284 283 283 284 283 284 284 284 285 284 283 283 283 282 283 284 284 283 284 284 286 287 287 288 291 294 294 296 297 298 298 298 299 300 301 301 302 305 303 306 304 306 308 310 312 316 319 321 321 321 321 322 325 329 335 338 342 343 342 340 339 337 336 335 334 334 334
283 283 283 283 283 283 283 283 282 283 283 283 283 283 283 284 284 283 283 284 283 282 282 282 283 283 284 284 284 284 283 283 283 283 282 282 283 282 284 286 287 288 291 293 294 295 296 297 298 298 298 299 300 301 302 302 303 299 302 304 306 308 310 312 313 317 320 320 320 321 323 325 328 331 336 340 341 340 339 338 337 336 335 335 334
282 282 283 282 282 281 282 282 282 282 282 283 283 283 283 283 282 282 283 282 282 282 281 282 282 282 282 283 284 283 282 284 283 282 282 283 282 281 283 286 284 285 288 290 290 293 295 296 297 298 298 298 300 300 300 300 301 300 299 302 304 306 308 310 311 314 316 318 319 321 322 324 325 327 331 335 337 338 338 339 338 337 336 335 334
281 281 282 282 281 281 281 281 282 282 282 282 282 282 282 282 282 282 282 282 282 281 281 281 281 281 282 281 281 281 282 282 282 281 281 282 282 281 281 283 284 283 287 288 291 291 293 297 298 298 298 298 298 299 299 299 300 298 298 301 304 305 307 310 312 311 313 315 318 319 319 320 323 324 326 333 337 336 338 338 338 336 335 335 333
281 281 281 281 280 281 281 281 281 281 281 281 282 282 282 282 281 281 281 281 281 280 280 280 280 280 280 280 280 280 280 281 281 280 282 282 281 281 281 278 279 282 282 285 287 289 290 294 296 297 297 297 298 298 299 300 299 298 297 304 305 303 306 308 310 312 312 314 315 317 318 318 320 323 323 326 333 335 336 338 337 336 335 334 333
280 280 280 280 280 280 280 280 280 281 281 281 281 281 281 281 281 280 280 281 280 280 280 280 279 280 279 280 279 279 280 280 280 281 282 282 282 282 281 279 277 276 281 281 284 286 291 291 294 297 298 297 298 298 297 298 299 298 298 305 305 306 306 308 310 312 313 314 315 316 317 318 319 320 321 322 324 327 330 331 332 330 326 326 325
279 280 279 280 279 279 279 279 280 280 280 280 280 280 280 280 280 280 279 280 280 279 279 279 279 279 279 279 279 279 279 280 280 281 281 281 281 281 281 280 280 278 277 279 282 284 288 292 291 293 296 297 296 298 298 299 299 300 304 306 308 311 308 308 311 313 313 314 315 316 317 317 317 318 318 320 321 323 325 325 324 323 324 324 325
279 279 279 279 279 279 278 278 279 279 279 279 279 279 279 278 279 279 279 280 279 279 279 279 278 279 279 278 279 278 279 279 280 280 280 279 280 280 280 280 281 279 279 278 280 285 286 291 292 292 295 297 298 298 300 301 299 301 304 306 308 309 307 308 310 312 313 313 315 316 316 317 316 316 317 318 320 322 325 325 323 323 323 324 326
278 278 278 278 277 277 278 277 277 277 278 278 278 278 278 277 278 278 279 279 278 278 278 278 278 278 278 277 278 277 278 278 278 278 278 279 279 279 280 281 280 280 280 280 279 283 287 287 290 293 293 294 296 296 298 299 301 303 306 305 306 303 301 305 304 309 311 312 314 316 315 314 316 316 316 316 320 321 322 322 321 321 322 323 326
277 277 277 276 276 276 276 276 276 276 276 277 277 277 277 277 277 277 278 278 278 277 277 278 278 277 277 277 277 277 277 278 277 278 278 279 279 279 280 280 280 281 281 281 280 280 286 286 289 291 293 293 295 295 299 300 299 296 301 300 301 300 305 310 306 306 308 310 313 314 315 314 315 316 316 316 318 320 321 320 320 320 320 322 324
276 276 275 276 276 275 275 275 275 276 275 276 276 276 276 275 276 276 276 276 276 276 276 276 277 277 276 276 276 276 277 276 276 276 277 278 278 279 279 279 278 280 280 279 279 279 283 286 288 289 292 293 293 295 294 295 296 298 298 300 302 303 304 306 309 304 306 308 310 313 314 313 315 315 315 316 317 319 319 319 318 318 319 321 322
275 275 275 275 275 275 275 274 275 275 275 275 275 274 274 274 274 274 274 274 274 274 274 274 274 275 276 275 275 275 275 275 275 274 275 275 276 277 277 277 277 278 279 278 277 277 277 282 285 288 290 294 291 295 294 295 295 296 298 299 303 304 304 304 304 306 305 306 308 311 313 313 314 316 315 315 316 318 318 318 317 317 318 319 320
275 275 275 275 274 274 274 274 274 273 273 273 273 273 272 272 272 272 272 272 272 271 271 272 272 273 273 273 273 273 274 273 273 273 274 274 275 275 276 277 276 277 277 277 276 274 275 278 281 283 285 289 292 293 295 296 296 299 299 300 302 304 304 304 304 306 305 306 308 310 312 313 314 315 315 315 314 316 317 317 316 316 317 318 318
274 274 274 274 274 273 273 272 272 272 272 272 271 271 270 270 270 270 270 270 270 270 270 270 270 271 271 270 270 271 272 271 272 272 272 273 274 275 275 276 275 275 276 276 276 275 275 276 279 280 284 286 289 293 294 296 297 298 300 301 302 301 303 303 304 305 306 307 307 308 310 311 312 314 315 315 314 315 315 315 315 315 315 315 316
273 273 273 273 272 271 271 271 271 270 270 270 270 269 269 269 269 269 269 269 269 269 269 269 270 269 269 269 269 270 271 270 270 271 272 272 273 274 274 274 274 275 275 275 275 276 277 277 279 282 284 287 290 291 293 293 294 297 299 300 300 301 301 302 303 304 302 304 304 305 307 309 311 313 315 315 314 315 315 315 314 314 313 314 314
271 271 271 270 270 270 270 270 270 269 269 269 269 269 269 269 268 268 268 268 268 268 268 268 268 268 268 268 269 269 269 269 269 270 271 271 272 273 274 274 274 274 274 274 275 275 275 276 278 280 285 286 288 290 294 295 294 293 296 298 299 300 300 301 303 304 305 306 307 309 305 307 309 310 313 314 314 314 315 314 314 313 311 311 312
269 269 269 269 269 269 269 269 269 269 268 268 268 268 268 268 268 268 267 267 268 268 268 268 268 269 269 269 269 270 270 270 270 270 271 271 272 272 273 273 274 273 273 273 273 274 276 278 280 282 284 286 289 289 294 296 296 295 294 294 296 299 299 299 299 302 305 306 306 305 308 309 310 312 310 312 313 313 313 313 313 312 309 310 311
268 268 268 268 268 268 268 268 269 269 268 268 268 269 269 269 268 267 267 267 268 268 268 269 269 269 269 269 270 270 271 271 271 271 271 271 272 272 273 273 273 273 273 273 274 274 275 276 278 280 284 286 289 291 294 294 296 294 296 295 294 296 297 298 300 301 304 305 307 310 307 307 309 310 309 310 311 312 311 311 310 309 307 310 311
267 267 267 267 267 267 268 268 268 268 268 268 268 268 268 268 268 268 268 268 268 268 268 269 270 270 270 270 270 271 271 273 275 275 275 275 272 271 273 273 273 273 273 273 273 274 275 276 277 280 282 285 288 289 290 290 292 293 294 295 293 295 296 295 296 299 300 303 306 309 311 311 311 314 315 316 316 312 311 309 309 305 307 310 311
266 266 266 266 267 267 267 268 268 268 268 268 269 270 271 270 270 270 270 270 270 269 269 269 270 270 271 271 272 274 274 275 275 276 277 277 277 275 274 274 274 273 273 272 272 273 275 275 277 279 280 282 286 288 289 293 293 294 293 294 292 294 294 294 294 295 300 303 305 307 310 313 313 314 315 315 317 312 316 314 315 312 308 310 311
265 266 266 266 267 267 267 267 267 267 268 268 270 271 273 273 271 270 270 270 270 270 270 269 269 270 271 271 272 273 274 275 274 277 277 278 278 278 279 279 279 276 274 273 273 274 274 275 277 278 278 279 283 287 288 291 292 292 292 292 291 290 290 289 289 292 297 305 306 306 307 313 315 313 314 315 317 315 317 316 310 308 308 310 311
265 266 266 266 267 267 267 267 267 267 267 269 271 272 273 273 273 271 271 270 270 270 270 270 270 270 271 271 272 273 273 274 274 274 275 277 278 279 279 279 279 280 280 277 275 275 275 275 276 277 279 279 281 286 288 289 290 292 291 290 289 287 286 286 288 288 295 301 301 305 307 311 314 314 314 316 317 317 318 313 309 309 309 310 310
265 265 266 266 266 267 267 267 266 267 267 269 271 272 273 274 274 273 271 271 271 271 271 271 271 271 271 271 272 273 273 276 275 275 275 275 277 278 279 279 279 280 280 281 281 278 278 277 276 277 279 280 280 283 288 290 291 289 289 288 288 286 286 286 287 287 288 289 291 299 304 308 312 310 313 316 316 317 316 310 308 309 309 310 310
265 265 265 265 266 266 266 266 266 267 267 269 271 272 273 274 274 274 272 271 271 271 270 270 270 271 271 271 271 272 273 274 275 275 275 275 275 275 275 276 276 277 279 280 280 280 280 278 277 276 279 281 281 283 287 290 289 288 287 287 287 286 286 286 287 286 287 288 288 292 299 305 310 312 310 315 316 316 316 311 308 309 309 309 309
265 265 265 265 265 265 265 266 266 266 266 270 272 272 273 274 275 275 272 271 270 270 271 271 271 271 272 272 272 272 272 273 274 275 275 276 276 275 275 275 276 276 276 276 276 277 277 278 278 279 280 281 283 284 286 289 291 290 289 287 287 286 286 287 287 287 288 291 292 292 291 304 310 311 311 314 314 314 314 309 308 308 309 309 309
265 265 265 265 265 264 265 265 265 265 266 270 271 272 273 274 275 271 271 271 271 271 271 271 271 271 272 272 271 272 272 273 275 278 278 277 276 275 275 275 276 276 276 278 280 280 279 278 279 280 281 284 286 285 286 289 291 291 290 287 286 285 285 285 285 287 287 291 293 294 293 300 309 310 309 312 313 311 311 310 307 308 309 309 309
264 264 264 264 265 265 264 265 265 265 266 268 271 272 273 274 273 271 271 271 271 271 271 271 272 271 272 272 272 272 272 272 275 278 279 279 276 276 276 275 276 276 276 278 280 281 282 282 283 284 285 286 287 289 289 290 290 292 289 287 286 287 285 284 284 286 287 290 291 294 297 299 306 309 307 308 309 307 308 308 310 307 308 308 308
263 264 264 264 264 265 264 264 265 264 265 268 271 272 273 274 274 271 271 270 270 271 271 271 272 271 272 274 274 272 272 272 276 277 278 277 275 275 276 275 275 275 276 278 278 279 281 282 283 284 284 286 287 289 290 290 291 291 289 285 286 286 284 285 284 285 287 287 288 292 294 298 304 306 305 304 302 306 307 308 308 308 306 307 308
263 264 264 264 264 264 264 264 266 266 265 267 271 272 273 274 273 272 271 271 270 270 271 271 272 272 272 273 274 274 273 274 277 278 279 278 276 276 276 276 275 275 277 278 278 277 278 279 280 283 284 286 287 288 288 290 291 291 291 288 287 285 284 284 285 285 285 286 289 293 294 298 300 303 304 302 301 302 305 305 305 308 309 308 309
Wind_Speed
5 5 4 5 5 5 5 5 6 6 6 6 6 7 6 6 5 6 5 5 6 6 6 7 6 6 7 8 8 8 9 9 9 9 9 9 9 11 13 14 16 19 21 22 23 23 24 23 24 24 24 26 26 24 23 21 21 23 20 20 22 23 24 28 27 21 24 25 26 28 27 27 27 26 24 24 24 24 23 23 22 22 21 23 21
4 4 4 5 5 5 5 5 6 6 6 6 6 6 6 6 6 6 6 6 6 6 6 6 7 7 7 7 8 8 8 9 9 9 9 9 9 10 14 14 14 19 21 22 23 23 24 25 25 26 25 25 25 25 25 25 22 22 21 19 21 22 24 25 24 34 27 26 25 24 27 27 28 28 27 26 25 26 25 23 24 23 22 23 22
3 4 4 4 4 5 5 5 5 6 6 7 7 7 7 6 6 7 7 6 6 6 6 6 7 7 7 8 8 8 9 9 9 10 10 10 10 10 12 14 15 17 20 22 23 24 24 25 26 26 27 27 26 26 26 25 26 23 23 22 21 22 22 24 26 23 21 27 26 27 28 28 28 27 27 27 27 27 27 27 25 24 24 24 23
3 3 4 4 4 5 5 5 5 6 6 6 8 7 7 7 7 7 8 7 7 7 7 7 7 7 7 8 8 8 9 9 10 10 11 11 10 10 10 11 14 15 17 21 23 24 25 25 26 27 26 27 27 27 26 26 25 24 20 21 24 26 23 23 26 23 29 29 29 30 32 30 28 27 27 27 28 27 28 27 27 25 25 25 24
3 4 4 3 4 4 5 5 5 6 6 8 9 7 6 7 7 7 6 7 7 7 7 7 8 8 8 8 8 10 9 9 10 10 11 11 11 11 11 11 12 14 16 18 21 23 25 26 27 26 27 27 28 28 27 27 26 25 24 24 25 26 26 26 26 26 28 30 28 30 32 31 28 27 26 27 28 29 28 27 27 26 26 25 25
3 3 3 3 4 4 5 5 5 7 6 6 7 6 6 7 7 7 7 7 7 7 8 8 8 8 8 9 9 9 9 10 10 10 10 11 11 11 11 11 11 11 11 14 17 19 22 24 25 27 27 27 28 29 28 28 27 26 25 24 23 24 26 26 25 23 26 30 31 31 29 30 28 29 28 26 27 28 28 27 26 26 26 26 25
3 3 4 3 4 3 4 4 5 7 6 5 6 6 6 7 7 7 7 7 8 8 8 8 9 9 9 9 10 10 10 10 11 11 11 11 11 12 12 12 11 11 11 11 13 16 18 19 24 26 27 28 28 28 29 28 30 29 27 25 24 25 25 23 29 27 28 29 32 30 29 30 29 29 30 31 28 27 25 28 28 27 27 26 26
3 3 4 3 4 4 4 4 6 5 5 6 5 5 5 6 6 6 7 8 8 9 8 9 9 9 9 9 10 10 10 11 11 12 11 12 11 12 11 12 12 11 12 12 12 13 16 17 18 21 24 27 29 29 29 29 30 30 29 28 26 25 25 25 28 27 26 30 32 31 31 31 31 31 31 32 31 30 29 26 25 27 27 27 26
3 3 4 4 4 4 4 4 5 5 5 5 5 4 5 5 6 6 7 8 8 10 9 9 9 10 10 11 11 11 11 11 12 12 11 12 13 13 13 13 12 14 13 13 13 12 15 17 19 21 23 24 27 28 29 30 30 30 31 30 29 27 26 25 27 27 27 26 29 31 30 31 31 31 31 31 30 28 29 30 30 29 29 29 28
4 4 4 5 5 5 5 5 5 5 5 6 5 5 5 5 6 6 6 7 8 8 9 9 9 10 11 12 12 11 11 12 12 12 12 13 13 13 13 12 11 12 12 12 12 13 13 15 18 20 22 23 25 30 30 31 31 31 31 31 30 29 27 26 26 28 27 27 28 32 32 31 31 32 30 31 31 31 32 31 31 30 30 30 29
4 5 5 4 5 5 5 6 6 6 6 6 5 5 5 5 7 7 7 7 8 9 9 10 10 11 12 13 13 14 13 12 13 12 13 14 13 13 11 12 12 12 12 12 12 13 14 13 13 13 14 20 23 28 31 32 32 32 32 32 31 30 29 27 26 27 27 27 26 30 31 31 31 32 32 32 32 32 33 32 31 31 30 31 31
5 5 5 5 5 5 6 6 6 6 6 6 5 4 5 6 7 8 9 8 8 8 8 9 11 13 14 13 12 14 15 14 15 14 14 13 12 11 11 11 11 12 13 12 12 12 12 13 12 13 14 17 21 22 25 28 29 31 33 32 31 31 31 29 27 28 28 28 28 30 32 33 33 34 34 34 32 33 34 32 31 32 32 31 31
5 4 5 5 6 6 6 7 7 7 7 6 6 6 6 6 6 6 8 8 7 6 7 9 11 12 10 13 14 14 15 16 16 15 14 12 11 11 10 11 11 11 11 11 13 13 13 13 13 13 14 14 16 21 23 26 27 28 33 32 32 31 32 31 30 25 29 29 29 30 33 36 38 39 38 36 35 33 31 31 30 31 32 30 30
4 5 5 6 6 6 6 7 7 7 7 7 7 7 7 6 5 6 6 7 8 6 7 8 8 10 15 15 12 9 11 13 14 14 13 11 10 11 11 11 11 10 10 11 12 13 13 13 13 13 14 15 15 15 14 17 23 30 30 33 33 33 32 31 31 31 29 29 30 31 31 34 38 35 37 36 36 35 38 36 35 32 30 32 32
5 5 5 6 6 6 7 7 7 7 6 6 6 6 5 6 6 6 7 6 7 6 6 4 9 10 11 13 14 16 10 6 6 5 5 8 10 12 12 11 12 11 10 11 11 12 12 12 13 14 15 15 15 15 16 18 16 24 29 31 32 33 32 32 31 30 28 29 30 30 30 31 38 39 35 35 37 37 37 36 35 35 35 33 32
5 6 6 6 6 7 7 7 7 7 7 6 6 6 5 5 5 6 6 8 6 7 5 6 6 8 10 8 13 11 16 7 10 12 11 15 15 13 10 10 11 11 10 11 11 11 11 11 13 13 14 15 14 15 16 16 19 18 28 30 33 31 31 31 32 31 32 29 30 30 29 30 33 37 37 33 35 37 40 38 40 38 37 35 35
5 6 6 7 7 7 7 7 8 7 6 6 6 6 6 6 6 6 6 7 9 8 7 7 7 6 7 10 9 8 10 14 17 17 5 7 8 10 11 14 14 12 11 12 13 13 14 15 15 15 16 16 17 17 17 17 18 15 17 27 30 32 31 30 32 33 31 31 29 31 30 30 33 34 38 39 39 41 41 37 38 41 38 36 34
6 6 6 6 7 7 7 8 8 7 6 5 6 6 6 6 6 6 7 8 8 9 9 7 7 7 8 9 9 11 15 16 12 15 13 10 13 12 12 12 10 12 13 13 14 13 12 13 13 14 14 14 15 16 15 16 17 16 16 14 27 30 30 31 30 32 34 32 32 31 30 29 30 36 39 39 39 36 40 38 37 38 42 40 38
6 6 6 6 7 7 8 8 8 7 6 6 6 6 6 6 5 6 7 6 7 9 10 8 7 8 8 10 12 13 14 13 13 14 18 14 7 11 12 13 15 16 16 16 15 15 14 14 16 17 18 16 16 16 16 16 18 19 21 22 19 22 29 28 28 29 32 33 31 30 30 27 28 32 39 41 40 39 40 36 34 36 40 39 38
6 6 6 7 7 8 8 8 8 7 6 6 6 6 6 6 7 8 7 7 8 9 10 8 8 9 6 8 10 11 13 15 16 14 15 18 21 11 11 14 13 14 15 17 18 17 17 16 16 16 15 16 16 15 16 18 17 17 16 19 23 24 21 26 26 26 27 29 31 29 29 30 31 28 29 40 43 38 37 40 38 40 38 38 39
6 7 7 7 8 8 8 8 8 7 6 6 6 7 8 9 9 8 8 8 8 8 9 9 9 9 8 9 9 10 11 12 13 14 13 15 19 18 16 12 13 15 14 15 16 16 16 16 16 16 16 16 17 17 17 16 17 17 18 24 23 22 25 26 26 25 25 26 27 27 30 31 29 28 28 31 37 37 37 39 37 37 38 39 42
5 6 7 8 8 8 8 8 8 7 6 7 8 8 9 9 10 10 9 10 9 9 10 10 9 10 10 9 10 9 10 10 11 11 14 15 17 19 18 17 17 14 13 14 16 16 17 17 18 17 17 16 16 17 17 18 16 15 17 22 25 27 22 26 28 27 26 26 26 27 28 28 27 28 31 33 37 39 39 38 43 43 46 43 43
5 6 7 8 8 8 8 7 7 6 7 7 8 8 8 8 9 10 11 11 9 10 12 13 12 12 12 11 13 13 11 11 10 10 11 13 14 16 18 18 18 19 16 17 16 18 17 16 17 18 18 18 18 17 17 18 20 19 21 20 22 22 24 22 23 27 27 26 27 27 27 26 27 26 31 40 44 44 43 37 36 35 36 41 42
6 7 7 7 6 6 7 7 7 7 7 7 7 8 8 8 8 8 9 10 11 11 13 14 15 13 14 13 14 14 14 13 12 11 11 13 14 16 16 17 20 17 14 15 18 19 19 19 18 18 18 18 17 16 18 20 19 22 19 21 21 24 24 24 25 24 26 27 27 27 26 26 26 26 29 32 34 42 44 38 38 39 41 40 40
6 7 7 7 6 7 6 6 6 6 7 7 8 9 9 9 9 10 10 11 10 11 12 14 14 14 13 13 14 14 15 15 14 14 13 13 14 16 16 16 19 22 17 14 14 15 17 18 18 18 18 18 18 18 18 19 19 20 22 20 26 26 25 25 24 24 25 27 27 27 26 27 27 26 25 31 38 42 41 42 43 43 45 42 46
7 8 6 6 6 7 7 8 8 8 9 9 10 10 10 10 10 11 12 11 12 14 15 16 16 17 15 15 15 15 15 15 15 13 13 13 14 16 17 15 18 21 19 17 16 17 16 17 17 18 19 20 18 19 18 19 20 23 24 21 23 25 26 24 24 24 25 28 29 28 28 28 29 30 30 31 37 46 41 42 44 52 52 47 43
7 7 7 7 8 8 8 8 8 9 9 9 9 10 11 11 12 13 13 12 13 14 14 15 16 17 18 16 16 16 16 15 14 14 14 15 16 16 15 17 17 19 20 19 19 21 19 16 16 18 18 18 19 19 18 18 21 24 23 17 19 27 25 26 27 26 25 28 29 30 30 30 30 30 29 29 30 39 44 38 40 40 37 37 40
7 8 7 7 8 8 8 9 9 9 10 10 11 11 12 13 13 13 14 11 13 15 15 16 17 19 18 17 17 18 16 15 14 14 14 15 15 15 15 17 17 17 17 20 18 19 19 18 15 17 19 21 20 19 19 20 21 24 21 16 20 18 23 25 26 26 27 27 28 31 32 31 30 29 27 30 30 30 36 36 41 38 38 40 36
7 6 7 7 7 8 8 9 9 9 10 12 13 13 13 13 13 14 14 14 14 15 15 15 16 16 17 19 18 18 17 16 15 15 17 17 18 17 16 16 16 17 16 19 20 18 17 16 15 14 17 20 19 16 18 19 20 19 18 18 19 19 22 22 23 25 26 29 30 31 35 33 28 27 28 31 35 33 37 45 42 41 42 41 39
6 6 7 7 7 8 8 9 9 9 11 12 12 13 13 12 14 14 14 15 15 14 15 15 16 16 17 18 17 17 17 16 17 18 18 18 17 17 17 16 16 18 16 19 19 15 16 15 14 14 14 13 14 13 14 17 19 16 15 19 19 19 22 21 20 22 25 28 31 30 32 34 30 30 30 31 34 32 34 37 47 52 47 44 42
6 6 6 7 7 7 7 8 9 10 11 12 12 12 12 12 13 13 14 14 15 16 15 15 15 15 18 20 19 19 17 19 18 18 18 17 16 16 16 16 17 18 18 19 18 13 12 16 15 16 15 16 14 17 19 16 12 14 12 12 17 23 24 19 21 20 23 27 30 32 28 25 31 31 31 30 30 31 29 30 26 30 38 39 38
6 6 6 7 7 8 7 8 10 11 11 11 12 12 12 12 12 12 12 14 16 17 17 16 14 16 18 19 20 17 17 17 19 16 16 17 16 16 15 14 13 14 14 15 17 20 13 17 17 18 20 17 17 19 15 15 15 17 15 16 17 20 14 13 18 21 22 25 29 30 33 30 30 30 30 31 32 34 36 35 36 33 29 33 37
5 6 6 7 7 8 9 10 10 11 11 12 11 12 12 13 13 14 14 15 17 16 16 17 18 17 18 20 19 20 18 18 19 17 16 18 18 17 18 15 14 14 15 16 17 20 18 18 17 17 16 16 18 17 22 22 20 17 15 15 17 15 14 12 11 15 19 24 27 28 28 28 32 33 33 33 34 37 38 38 36 37 36 33 33
6 6 7 7 7 9 10 10 11 11 12 13 13 12 13 13 14 11 12 14 16 17 17 18 17 16 17 19 20 19 20 21 21 21 18 18 18 17 17 14 15 16 15 13 12 14 18 13 15 15 15 14 15 19 20 21 22 17 17 16 14 15 12 11 11 12 18 19 26 27 26 26 29 32 34 34 35 39 42 40 38 38 39 37 34
6 6 7 8 9 10 10 10 10 11 12 12 12 12 13 14 15 14 13 15 16 17 18 18 18 17 19 19 21 19 17 20 21 19 19 20 19 19 20 16 15 16 14 15 14 18 21 19 18 19 18 16 16 16 21 20 18 16 13 13 13 11 9 10 11 11 17 20 21 25 26 26 28 30 32 35 31 32 36 41 41 39 38 38 38
6 6 7 8 9 9 10 11 11 11 12 12 12 12 13 14 14 15 15 15 15 16 18 18 18 18 19 20 20 19 19 21 21 19 18 18 18 17 19 17 17 19 17 16 18 16 18 20 21 20 20 16 17 18 19 18 18 11 10 11 13 13 10 9 11 12 13 18 19 21 25 25 27 29 32 34 35 35 35 37 40 41 40 39 37
6 6 7 7 7 8 8 10 11 12 12 12 12 13 13 13 14 15 16 15 15 16 17 18 18 19 19 20 20 19 19 20 20 18 17 20 18 18 18 17 16 16 16 15 17 19 20 22 20 17 17 16 16 19 20 18 16 16 12 11 11 12 11 10 11 12 16 20 20 21 22 24 26 30 33 34 35 36 35 36 35 35 38 39 37
6 7 7 6 6 8 9 10 11 12 12 12 13 14 14 14 14 14 15 15 16 17 18 19 19 18 18 19 18 18 19 19 19 18 18 20 18 18 18 17 17 16 17 17 17 20 21 21 20 19 16 15 17 19 18 16 11 14 10 10 11 11 10 10 10 10 10 10 10 12 17 22 29 28 31 32 35 36 36 37 37 35 35 37 37
6 7 6 7 7 8 9 10 11 12 12 12 12 13 13 14 15 15 15 16 17 17 18 19 20 21 20 19 19 19 19 19 20 19 19 19 18 20 18 18 18 17 18 18 19 21 21 19 17 17 17 17 18 18 14 12 13 12 9 10 11 9 8 9 11 10 9 10 14 18 16 18 23 23 25 30 35 36 37 38 38 38 36 36 36
6 7 6 7 7 7 9 10 11 11 12 12 13 13 13 13 14 15 16 16 17 18 19 20 20 20 21 20 20 20 19 19 19 19 19 18 16 18 17 16 17 18 18 17 17 17 18 18 17 17 15 17 13 11 10 10 6 5 6 8 13 11 7 7 9 9 8 9 10 11 16 21 21 25 26 29 33 35 36 35 37 37 38 36 34
5 6 6 7 8 9 9 10 11 11 11 11 10 10 11 13 13 15 16 16 17 17 17 17 18 18 20 20 20 21 22 25 30 27 25 22 16 16 17 17 18 17 17 16 16 16 16 16 18 17 15 16 12 9 9 9 7 3 3 4 9 10 9 9 10 8 8 10 10 12 12 14 15 16 17 18 23 32 34 37 34 38 38 37 36
5 5 6 7 8 9 9 10 10 10 10 9 11 17 17 15 16 16 16 17 18 18 19 20 21 21 20 19 20 29 30 31 31 32 32 32 32 25 20 17 17 17 16 16 16 16 16 16 16 15 15 15 12 10 8 4 3 2 3 5 7 9 10 10 10 6 5 9 12 12 13 13 15 15 17 18 19 29 23 27 27 31 36 39 38
5 6 6 7 8 8 9 9 10 9 9 9 17 19 21 23 18 17 17 17 17 18 19 20 20 20 20 20 20 23 26 29 28 32 31 32 32 33 34 34 29 22 18 17 18 17 17 17 16 16 16 17 17 12 9 8 5 5 4 4 5 8 10 12 12 8 2 7 12 12 12 13 16 15 16 18 18 19 22 22 34 39 40 39 40
5 4 6 7 7 8 7 9 10 10 10 14 20 20 22 23 22 18 17 17 17 19 18 20 19 19 21 21 19 17 18 20 20 22 26 31 32 32 33 33 33 34 33 26 20 18 18 18 18 18 17 16 15 15 11 9 8 6 4 4 4 5 8 10 10 11 7 11 14 12 11 12 16 17 16 19 18 19 22 29 37 39 40 40 40
4 5 6 6 7 7 8 9 10 10 11 15 20 22 22 23 24 22 16 17 17 18 19 20 20 20 19 19 19 17 16 27 23 21 20 20 26 31 31 31 31 32 32 33 33 26 20 20 20 21 19 16 17 15 13 11 7 8 6 6 5 5 5 8 8 11 14 10 13 15 12 11 16 18 18 19 18 20 24 32 39 40 41 41 40
4 5 5 7 7 7 8 9 10 11 12 15 21 23 23 24 25 22 17 18 17 18 20 19 18 19 20 20 19 19 18 19 18 19 19 22 19 20 20 20 20 24 29 33 34 35 31 24 21 22 22 20 19 16 15 10 7 9 7 6 5 7 8 9 10 12 13 9 8 11 13 10 15 17 19 19 19 21 22 32 41 41 40 39 37
4 4 5 6 7 8 9 9 10 11 11 19 22 24 24 25 25 24 17 17 17 17 17 18 19 20 20 19 20 21 20 19 18 21 18 17 17 16 18 19 21 21 22 21 21 20 19 19 20 22 23 23 22 20 18 17 12 10 7 5 5 7 8 9 10 10 11 8 8 6 12 10 14 18 18 18 19 20 20 32 41 42 42 41 39
3 4 5 6 7 8 9 10 11 12 12 20 23 24 25 25 27 18 16 16 16 16 18 19 20 20 20 20 20 21 21 21 24 29 26 20 18 18 18 17 19 19 21 22 28 27 24 20 19 18 17 21 24 21 20 18 15 11 7 4 4 5 6 8 11 10 10 7 5 7 11 13 14 18 16 16 19 20 20 22 38 42 41 41 40
3 4 5 6 6 8 9 10 11 12 13 18 23 24 24 26 22 16 16 14 15 17 19 19 20 20 20 19 20 19 20 20 25 30 30 28 19 20 19 19 16 16 16 17 27 33 33 34 35 36 37 37 36 34 34 35 23 12 9 7 8 6 6 8 11 10 11 9 9 8 12 13 13 16 15 16 19 18 19 20 24 35 38 38 37
4 4 5 6 7 7 9 11 11 13 16 19 24 24 25 26 23 18 16 16 18 19 19 18 17 18 20 31 27 22 22 22 27 30 31 25 20 20 19 20 20 19 19 18 16 20 27 30 31 33 35 35 35 37 36 35 31 19 11 12 6 4 6 6 10 9 11 10 10 8 13 12 8 14 16 13 15 17 19 19 22 26 34 31 35
4 5 5 6 7 8 9 11 16 17 15 17 22 24 25 25 22 16 16 16 16 17 17 17 17 18 20 21 28 26 24 25 32 31 32 26 20 18 17 18 19 18 18 19 17 17 16 16 17 19 20 25 22 22 23 29 28 21 13 10 5 6 8 8 8 8 10 12 6 4 12 12 9 13 19 16 14 10 15 17 19 19 19 18 22
Wind_Direction
15 5 359 1 352 347 342 345 337 340 339 336 337 330 327 327 323 322 317 311 306 300 300 293 291 292 291 290 289 290 289 286 285 284 282 281 282 283 286 286 281 280 277 276 276 276 273 266 262 259 262 265 265 262 262 258 248 248 238 221 223 228 231 231 233 236 217 217 218 208 210 204 197 196 190 190 182 180 182 182 181 179 177 178 181
12 359 358 356 350 348 343 344 339 341 338 334 332 323 321 319 321 317 314 308 303 300 296 292 291 289 287 287 285 286 285 284 282 281 280 280 279 281 276 275 279 282 281 279 276 274 275 274 270 263 258 260 264 264 261 259 251 250 244 219 216 219 225 229 225 224 220 214 208 208 207 206 202 194 189 188 184 182 182 181 182 181 178 179 182
6 2 352 351 351 348 343 340 338 342 337 330 329 320 315 316 319 319 319 315 307 304 296 295 291 288 285 284 284 284 283 281 278 277 278 278 279 281 279 273 271 273 275 277 275 272 269 269 271 269 266 262 258 259 263 262 260 251 250 240 225 219 220 225 229 226 221 218 211 208 207 208 201 198 192 187 185 184 182 180 183 181 178 179 185
16 5 352 345 347 345 338 338 334 335 329 327 322 315 311 309 310 309 306 306 308 306 305 298 292 289 290 286 284 282 281 280 279 276 275 275 277 277 279 280 271 268 271 274 275 274 271 266 264 267 266 265 263 259 256 259 258 256 244 245 248 243 227 226 227 213 215 216 212 209 207 206 205 200 194 189 186 187 184 181 182 180 180 182 183
4 0 344 338 339 332 336 331 329 331 323 319 315 310 310 314 314 311 304 307 300 300 300 294 294 294 290 287 289 286 282 281 278 275 273 273 274 274 275 277 277 272 264 264 268 268 269 267 265 261 265 266 264 261 259 256 255 253 249 241 240 242 236 228 230 226 220 218 211 210 210 207 197 197 197 192 189 188 185 181 182 180 180 182 183
353 340 332 332 329 323 328 325 328 324 314 318 320 319 316 317 317 317 318 307 307 306 303 296 294 293 292 292 287 285 284 282 281 277 274 272 270 270 271 271 273 274 274 266 265 267 267 267 265 263 260 263 264 262 260 258 255 252 250 246 240 237 236 232 229 223 224 225 218 211 211 209 200 195 196 199 194 189 185 182 182 181 180 184 184
339 328 322 319 317 311 313 316 325 315 308 315 312 310 312 315 317 317 312 306 305 304 300 298 297 292 288 286 286 287 283 280 278 278 274 271 268 268 267 266 267 270 269 272 264 258 261 262 263 263 263 261 260 260 259 257 257 255 252 249 244 238 237 234 235 225 222 223 223 216 212 210 205 199 195 193 191 191 189 183 183 181 180 183 185
322 319 306 305 302 300 299 312 312 302 301 300 298 298 308 305 304 302 306 304 301 297 296 295 294 292 290 285 280 278 281 280 276 274 272 274 271 269 268 268 266 265 268 272 273 273 267 270 272 270 264 261 260 260 259 255 255 254 252 250 246 242 237 229 232 232 225 224 226 219 213 208 208 202 199 195 190 186 185 183 185 185 182 182 184
301 295 288 281 284 286 290 291 297 291 286 288 283 287 292 290 291 292 287 293 294 290 290 291 291 288 286 281 278 275 270 272 272 271 273 269 269 268 267 265 268 268 266 266 269 271 267 261 261 260 261 261 262 260 257 255 253 253 253 249 247 244 239 229 228 231 233 228 226 224 215 212 210 206 201 196 190 187 186 185 184 187 183 182 182
282 276 275 275 272 274 277 278 279 276 272 274 276 276 277 287 293 291 292 292 292 296 297 295 291 287 282 277 274 269 266 264 262 264 264 264 263 262 263 269 269 268 271 274 273 272 273 268 262 260 256 254 253 256 257 256 254 250 252 252 248 245 241 235 227 229 231 231 225 224 217 212 211 206 201 198 193 188 189 187 187 186 184 182 181
272 266 267 272 272 269 269 270 272 268 268 271 272 268 270 280 284 289 287 286 292 294 296 298 293 286 281 279 277 271 268 264 263 259 257 258 259 261 264 262 261 263 262 265 268 273 273 272 274 272 264 250 245 247 250 250 250 249 248 250 248 246 243 239 231 225 228 230 224 222 220 214 210 207 204 201 194 191 190 187 186 186 185 183 181
273 268 268 269 274 271 268 266 258 259 259 262 267 275 283 285 281 285 288 286 280 285 295 300 296 290 283 278 275 275 267 260 258 255 255 254 257 258 257 255 254 255 255 257 259 263 268 273 271 269 269 268 261 252 246 246 246 247 247 246 246 244 244 241 234 225 224 226 226 222 223 219 212 209 206 201 197 193 190 189 185 186 186 185 181
271 271 273 272 267 268 263 259 252 254 254 257 262 270 272 272 280 279 281 285 287 287 295 301 299 296 295 291 287 271 264 260 254 253 253 253 252 252 250 255 256 258 260 261 264 264 265 266 268 271 270 272 267 257 247 244 243 242 245 244 244 242 241 241 235 220 222 226 228 226 222 223 217 208 204 198 197 194 191 188 188 187 187 185 181
275 277 272 268 269 266 264 261 258 259 260 263 262 262 263 262 273 283 270 279 285 290 297 306 305 318 319 314 294 280 271 265 252 247 255 256 259 262 264 265 263 265 268 268 267 266 266 267 266 265 268 270 271 271 265 243 237 238 239 240 240 241 238 239 237 232 222 222 227 229 228 222 219 211 203 200 196 195 193 191 189 185 181 185 180
273 273 272 263 262 265 265 264 259 260 263 261 258 258 260 267 271 277 296 282 280 277 283 308 307 311 298 295 312 325 309 251 250 228 259 285 281 273 274 274 273 273 273 271 269 270 270 270 270 270 271 269 270 271 266 264 253 228 233 237 240 239 237 236 238 236 223 218 224 229 229 227 220 208 204 200 195 193 190 188 187 184 183 183 180
268 266 261 263 266 269 269 263 262 259 261 265 265 265 261 265 269 275 283 292 290 291 283 290 288 316 314 318 304 302 302 308 326 296 290 278 272 273 272 276 284 284 283 279 281 282 281 283 281 282 280 278 274 271 268 268 265 240 227 231 234 237 236 235 237 237 234 222 222 227 225 219 217 211 201 198 195 192 191 188 187 186 182 179 178
267 264 265 268 265 262 264 266 265 261 261 263 265 264 267 266 268 270 271 283 294 291 287 274 268 264 287 311 311 293 290 310 329 304 302 301 304 295 290 290 289 288 286 282 281 281 281 276 273 270 272 274 275 274 274 270 266 263 238 227 230 232 236 234 234 236 236 232 221 224 225 219 217 218 212 200 195 191 189 185 187 186 181 180 176
262 265 265 266 268 267 267 266 264 262 258 265 268 268 258 256 257 265 269 266 274 287 284 274 258 256 253 256 260 283 305 309 316 304 310 290 289 285 286 285 287 289 283 280 279 279 278 279 279 277 275 272 268 265 270 276 269 262 262 238 225 234 232 234 232 233 234 235 231 222 220 222 221 216 216 211 198 194 189 186 183 184 183 181 178
273 271 270 272 274 274 270 267 266 266 264 264 267 269 271 262 263 258 263 269 266 271 275 285 278 254 248 250 257 265 274 290 293 305 303 304 276 290 290 284 286 282 280 278 275 276 276 275 276 276 274 271 267 266 263 264 276 284 279 275 260 229 232 234 232 231 233 234 232 227 221 221 222 224 222 205 198 192 190 186 183 185 184 183 179
275 278 276 277 274 272 265 263 264 265 268 269 272 274 274 267 255 259 263 260 258 262 276 278 275 281 269 266 263 263 264 264 267 276 287 298 301 288 272 287 284 276 278 277 275 272 273 273 271 269 268 266 268 267 262 260 258 260 268 273 268 259 235 232 230 226 229 231 231 229 227 229 230 221 217 219 197 190 185 187 184 184 183 180 180
262 267 268 266 262 260 261 261 262 267 265 270 268 266 262 264 264 257 253 257 255 264 270 272 269 270 276 269 267 266 268 265 267 267 270 288 288 291 294 291 284 281 276 276 272 272 269 267 267 269 269 269 268 267 265 258 252 253 256 261 273 276 258 240 233 225 224 228 231 231 231 228 226 223 212 206 205 190 186 185 181 183 186 182 179
265 261 264 258 258 259 260 262 263 266 264 270 270 266 262 258 258 256 259 261 260 259 260 267 269 270 265 272 270 270 266 264 258 260 265 258 273 291 293 292 287 281 281 275 276 272 268 267 269 267 265 264 263 265 268 268 262 258 251 253 260 264 272 257 237 231 224 224 228 231 231 235 229 219 211 201 197 197 189 185 186 184 184 182 181
280 274 261 258 256 259 261 264 270 266 265 267 263 263 263 262 260 257 256 255 257 261 262 262 264 266 265 262 263 262 261 265 267 266 269 274 276 274 282 288 286 287 277 278 277 276 275 273 270 266 264 263 263 264 263 261 261 257 260 257 256 260 261 266 264 243 229 221 224 227 228 230 228 220 208 200 197 195 195 190 184 185 185 180 178
269 266 258 252 259 266 265 267 266 265 264 264 266 265 265 263 261 259 260 257 257 259 262 263 262 262 262 261 258 257 260 261 265 268 266 269 272 276 279 289 289 276 277 277 275 273 270 267 264 263 263 264 264 262 263 266 266 274 277 271 265 262 262 262 261 268 254 230 222 224 225 224 224 220 210 205 201 199 195 189 187 182 181 184 184
258 259 258 257 264 269 268 270 275 271 272 268 267 264 265 264 262 262 260 262 261 260 261 259 259 258 263 260 258 255 256 261 263 264 265 268 265 270 270 276 278 286 285 277 272 267 265 265 264 262 263 259 260 260 261 264 265 261 256 258 259 264 263 259 259 257 260 254 229 222 222 221 219 216 214 207 202 202 195 188 187 185 185 185 184
268 265 270 273 269 269 271 273 272 274 271 269 269 267 266 266 266 264 264 265 266 262 259 260 259 258 258 260 257 256 257 258 258 259 259 260 262 264 274 272 273 277 282 282 273 271 264 261 261 261 260 263 261 261 259 262 264 261 259 257 258 255 258 259 257 254 254 256 246 224 219 218 217 215 215 213 208 198 194 194 192 193 187 180 183
264 273 278 278 278 276 276 278 278 277 275 274 271 270 267 268 270 271 271 268 265 260 258 257 257 256 254 253 256 255 254 254 253 254 256 255 259 265 268 274 271 269 274 272 276 264 267 262 268 271 264 261 261 262 265 262 262 261 259 251 249 245 246 252 255 255 249 248 247 234 219 215 216 214 214 214 217 208 193 184 185 184 181 182 182
265 268 272 273 277 279 281 280 281 279 277 276 276 276 275 273 271 270 265 262 262 259 259 260 257 256 255 254 255 254 253 253 253 253 252 253 255 259 261 261 266 273 269 273 270 268 264 266 260 260 272 264 259 263 261 263 262 261 256 255 257 251 238 237 244 249 253 250 246 235 221 213 212 208 206 206 209 210 190 180 179 177 176 178 181
263 265 270 272 274 278 282 284 282 281 282 282 279 276 276 273 271 270 267 266 263 260 259 259 258 257 256 254 253 255 254 254 253 251 251 254 258 260 255 254 255 261 267 268 265 269 268 262 266 259 257 260 259 255 255 256 256 253 255 255 254 252 250 238 231 236 242 248 244 236 221 211 200 197 199 200 205 203 199 180 178 179 178 179 178
264 269 271 274 279 279 283 287 287 288 287 283 278 277 275 272 270 269 267 267 265 263 261 259 259 256 256 255 252 253 254 252 252 251 251 254 256 252 252 253 253 256 261 265 269 261 273 270 270 277 274 281 281 265 257 257 264 279 280 273 265 259 253 247 243 240 239 239 238 231 224 207 194 192 195 198 202 201 201 203 186 177 177 176 176
262 268 277 283 284 285 284 289 292 289 286 280 279 276 273 271 270 269 267 265 263 262 261 260 259 259 258 256 253 253 254 254 252 254 254 252 250 250 250 250 249 250 257 261 268 257 258 272 271 271 276 272 263 266 267 264 250 252 264 272 274 268 254 250 246 244 243 239 236 229 220 207 189 189 192 194 193 189 181 177 183 184 174 173 175
271 276 279 282 283 286 288 290 293 284 280 280 278 276 274 272 272 270 269 267 266 265 266 263 262 261 260 257 254 251 254 256 257 255 255 251 249 249 249 252 255 255 261 266 266 274 264 275 278 277 274 273 278 282 282 275 266 256 258 268 267 269 269 259 249 246 246 241 234 230 219 201 193 188 187 189 188 183 177 175 171 174 182 177 176
276 280 277 279 285 284 291 290 286 284 281 280 280 279 276 274 273 274 274 271 271 270 270 270 266 264 263 258 255 257 257 259 260 258 257 258 256 255 254 254 260 263 265 268 272 273 270 261 268 272 277 279 270 260 266 266 264 264 259 257 259 263 259 256 262 263 253 245 238 229 221 203 193 188 188 189 187 180 176 174 174 173 175 181 181
275 276 277 281 280 290 291 283 284 282 280 281 281 279 277 278 278 276 275 274 273 272 272 271 271 269 264 263 262 263 263 258 258 260 259 258 257 255 252 253 254 255 256 271 283 287 289 293 284 285 284 278 275 270 262 261 263 258 259 259 258 255 253 258 256 257 264 257 240 232 226 206 198 189 188 191 189 184 174 173 175 176 174 176 178
278 275 282 285 290 291 283 284 285 283 281 280 280 278 278 279 280 278 275 275 275 275 274 273 274 274 270 268 270 270 265 263 260 259 259 259 257 257 257 251 253 258 262 263 273 279 281 281 281 280 277 277 270 270 265 260 260 263 266 273 262 252 248 253 255 254 253 257 252 237 225 218 207 195 188 187 191 188 181 174 175 176 177 176 175
277 284 284 289 293 293 292 289 286 282 280 279 279 279 278 279 279 279 278 277 275 274 274 275 276 275 272 273 273 271 267 265 263 263 262 260 258 255 253 254 257 264 271 279 279 277 279 279 271 266 269 272 272 270 270 272 268 259 251 257 269 266 257 250 249 251 252 254 253 247 235 220 212 200 194 186 185 186 182 181 179 176 175 175 175
278 284 285 286 288 287 288 290 292 287 284 281 280 280 279 277 278 278 278 278 274 273 273 272 273 273 272 271 272 272 269 267 266 263 263 260 258 258 258 256 254 256 260 259 262 264 263 258 262 265 267 267 268 269 262 262 265 260 248 250 259 263 258 251 248 247 249 252 254 249 243 226 217 208 194 189 185 184 180 180 180 181 176 172 171
282 279 280 284 286 289 287 289 288 287 287 283 283 285 285 285 280 281 277 273 272 269 268 267 265 262 263 264 267 267 268 267 266 265 264 265 264 260 256 254 254 256 258 259 261 263 262 261 261 265 266 269 268 259 252 247 245 259 266 263 258 249 254 260 252 246 238 238 241 244 240 232 217 216 198 188 184 183 180 178 178 178 178 173 171
272 274 277 282 283 285 284 289 290 289 289 288 287 285 284 282 284 281 276 272 267 266 262 261 261 258 255 254 254 255 258 259 260 262 263 262 260 260 261 261 259 257 257 259 260 262 264 270 271 268 269 265 261 258 242 236 237 248 270 282 271 256 236 246 256 251 245 245 243 239 233 227 221 211 202 190 183 182 179 176 176 176 174 174 171
267 273 279 282 285 285 287 290 295 293 290 292 291 292 293 290 283 279 273 270 268 266 265 262 259 256 252 248 249 249 249 254 255 256 256 259 258 258 256 256 257 256 256 258 262 264 265 263 261 264 264 266 261 248 245 236 237 259 256 278 275 270 257 245 250 263 256 246 249 245 226 219 219 210 200 193 186 180 176 174 174 173 171 170 171
267 270 278 282 283 285 287 289 294 297 293 292 295 297 293 288 283 279 277 272 269 268 268 267 266 265 262 255 251 248 244 249 254 253 253 252 252 254 254 253 255 255 256 259 261 265 271 276 273 270 273 275 263 258 254 256 251 259 344 309 293 293 286 279 266 253 263 271 259 238 224 208 208 208 198 198 189 182 176 174 174 172 170 169 170
269 275 278 281 282 284 289 294 297 298 295 290 282 282 285 289 291 290 289 287 286 285 284 284 282 279 277 274 267 256 246 246 251 255 256 257 256 254 255 251 249 251 250 253 259 261 267 274 278 282 282 280 286 281 271 275 331 327 336 338 317 312 303 283 275 247 236 255 252 237 224 207 203 201 197 194 194 182 180 174 172 172 171 169 170
263 270 271 276 280 284 289 294 296 290 285 282 287 289 293 295 296 293 291 288 286 284 284 284 283 284 281 277 275 275 267 255 252 255 258 258 258 258 257 257 256 253 254 251 251 255 259 262 270 277 277 280 282 279 279 287 302 317 318 346 327 322 312 309 306 307 213 241 248 233 221 206 201 202 195 193 187 188 174 177 171 170 171 170 169
264 265 270 271 280 289 290 295 294 292 289 288 296 296 298 298 297 296 293 292 290 287 284 283 282 282 282 280 276 273 270 266 256 253 250 252 255 258 261 261 260 259 256 254 257 256 254 258 260 260 267 268 276 284 285 286 286 292 307 329 323 310 308 307 305 297 314 327 293 256 228 203 198 201 197 193 183 182 179 173 173 172 171 172 171
258 257 268 281 284 293 295 299 297 293 291 291 301 303 303 302 302 301 294 290 287 287 288 287 286 285 283 281 281 275 272 272 265 265 261 254 252 252 258 258 259 259 258 257 254 256 261 261 261 262 260 265 269 274 284 281 291 291 313 309 308 295 274 287 287 301 302 313 309 288 251 209 193 197 196 191 183 181 179 173 173 172 173 173 174
248 263 268 275 282 291 298 299 298 297 293 294 304 306 307 306 305 304 297 295 292 290 288 286 284 282 280 280 279 277 275 274 270 264 262 258 256 260 258 261 260 260 260 259 261 261 260 261 261 260 262 263 262 266 276 290 299 293 298 298 302 294 289 279 284 279 282 289 275 288 279 222 193 193 195 189 181 180 182 174 172 172 172 172 174
248 266 276 281 288 289 292 294 296 296 292 301 306 306 307 306 305 307 299 293 286 280 280 281 281 281 281 281 281 281 281 279 276 275 268 259 253 252 250 252 252 253 254 255 258 258 257 257 260 258 257 258 260 258 264 270 273 279 280 266 267 271 280 283 276 259 270 254 261 276 279 248 194 191 193 181 177 177 179 175 174 172 171 171 172
260 268 276 283 288 289 289 294 296 295 293 301 306 306 304 304 306 305 298 291 286 286 285 287 284 281 279 277 277 276 275 274 273 274 275 274 268 259 253 248 245 243 246 248 257 258 257 257 260 265 268 263 254 251 255 259 267 271 271 242 244 261 273 284 286 299 290 294 279 280 273 255 200 186 182 175 169 170 171 173 173 172 171 170 170
278 278 281 285 288 294 295 292 294 292 292 298 301 304 305 307 308 302 299 292 289 290 290 290 289 285 281 278 277 278 278 276 275 274 274 273 270 266 259 256 248 248 249 252 259 262 261 260 260 260 260 261 259 252 248 250 253 252 258 255 258 271 284 293 294 300 297 316 309 309 274 254 208 173 165 166 165 160 162 167 169 168 167 168 168
289 286 291 290 287 291 295 292 287 293 296 295 297 302 303 303 305 305 302 298 293 292 288 282 281 281 279 279 276 276 277 276 277 276 275 274 272 272 270 265 263 260 256 256 260 263 262 263 261 261 262 262 259 251 245 244 245 242 242 250 255 267 266 272 285 295 301 296 285 300 284 254 210 158 150 147 148 159 158 159 163 164 163 165 167
283 288 294 295 294 294 287 282 286 292 289 293 299 302 301 303 308 306 301 293 287 288 290 291 288 287 283 283 280 276 275 275 276 275 272 269 265 264 266 270 269 260 258 259 255 259 260 260 257 254 253 252 250 242 239 240 242 242 240 243 226 239 264 264 269 297 303 285 282 307 274 255 209 170 144 144 148 149 152 152 156 159 160 162 168